Location: Sternwarte_Laufen
(47.9344°N, 12.9346°E)
Time: 03:29:15
(UTC+02:00)

ISS - Pass Details

Date: 15 July 2025
Orbit: 413 x 417 km, 51.6° (Epoch: 12 July)

Event Time Altitude Azimuth Distance (km) Brightness Sun altitude
Rises 21:55:29 0° 272° (W) 2,350 0.9 -7.6°
Reaches altitude 10° 21:57:38 10° 279° (W) 1,489 0.0 -7.9°
Maximum altitude 22:00:51 44° 353° (N) 587 -2.6 -8.3°
Drops below altitude 10° 22:04:05 10° 68° (ENE) 1,492 -1.2 -8.6°
Sets 22:06:15 0° 75° (ENE) 2,356 -0.2 -8.9°
